• Join FlightAware (Why Join?)
  • Login
  • US Flag 
07:00PM EST


 

Airport Tracker/Info


-or-


 

Live Flight TrackerFlight Track Log ✈ TAM3542 ✈ 17-Jun-2013 ✈ SBBR / BSB - SBEG / MAO

Flight Track Log - Related Links

Times and Time Zones

All times are in EDT time to prevent confusion due to time zone crossing. See the TAM3542 flight status page for this flight to view local times or setup timezone preferences in your user account.

Time Position Orientation Groundspeed Altitude Reporting Facility
EDT Latitude Longitude Course Direction KTS MPH feet Rate Location/Type
08:27PM -15.8670 -47.9210 101° East 21 24  Level FlightAware
08:28PM -15.8670 -47.9190 90° East 20 23 480 Level FlightAware
08:29PM -15.8670 -47.9160 90° East 33 38 540 Level FlightAware
08:29PM -15.8680 -47.9160 180° South 34 39 600 Level FlightAware
08:29PM -15.8710 -47.9160 180° South 34 39 600 Level FlightAware
08:30PM -15.8750 -47.9150 166° South 25 29 660 Level FlightAware
08:31PM -15.8780 -47.9210 243° Southwest 27 31 780 Level FlightAware
08:31PM -15.8780 -47.9240 270° West 27 31 960 Level FlightAware
08:32PM -15.8780 -47.9310 270° West 29 33 1,080 Level FlightAware
08:34PM -15.8810 -47.9390 249° West 18 21 1,440 Level FlightAware
08:35PM -15.8780 -47.8930 86° East 177 204 4,300 3,000 Climbing FlightAware
08:36PM -15.8770 -47.8680 88° East 177 204 5,200 1,800 Climbing FlightAware
08:36PM -15.8820 -47.8600 123° Southeast 180 207 5,500 1,320 Climbing FlightAware
08:36PM -15.9000 -47.8410 135° Southeast 193 222 6,100 1,020 Climbing FlightAware
08:37PM -15.9020 -47.8320 103° East 206 237 6,200 780 Climbing FlightAware
08:37PM -15.8780 -47.8060 46° Northeast 252 290 6,700 960 Climbing FlightAware
08:38PM -15.8470 -47.8030 North 283 326 7,200 1,680 Climbing FlightAware
08:38PM -15.8130 -47.8010 North 293 337 8,200 2,400 Climbing FlightAware
08:38PM -15.7800 -47.7970 North 299 344 9,200 2,340 Climbing FlightAware
08:39PM -15.7520 -47.7930 North 298 343 9,900 1,680 Climbing FlightAware
08:39PM -15.7190 -47.8010 347° North 311 358 10,500 1,320 Climbing FlightAware
08:39PM -15.7020 -47.8190 314° West 331 381 10,800 1,860 Climbing FlightAware
08:40PM -15.6580 -47.8740 310° West 347 399 12,300 2,160 Climbing FlightAware
08:41PM -15.6130 -47.9290 310° West 353 406 13,900 2,100 Climbing FlightAware
08:42PM -15.5670 -47.9850 310° West 355 409 15,400 1,860 Climbing FlightAware
08:42PM -15.5210 -48.0390 311° West 364 419 16,600 1,800 Climbing FlightAware
08:43PM -15.4720 -48.0990 310° West 372 428 18,000 1,380 Climbing FlightAware
08:44PM -15.4140 -48.1410 325° Northwest 393 452 18,600 1,260 Climbing FlightAware
08:44PM -15.3510 -48.1790 330° Northwest 398 458 19,700 1,680 Climbing FlightAware
08:45PM -15.2780 -48.2210 331° Northwest 400 460 21,000 1,500 Climbing FlightAware
08:46PM -15.2120 -48.2600 330° Northwest 407 468 21,900 1,380 Climbing FlightAware
08:46PM -15.1470 -48.2990 330° Northwest 409 471 22,900 1,260 Climbing FlightAware
08:47PM -15.0720 -48.3430 330° Northwest 421 484 23,700 1,320 Climbing FlightAware
08:48PM -14.9960 -48.3880 330° Northwest 416 479 24,900 1,680 Climbing FlightAware
08:49PM -14.9290 -48.4270 331° Northwest 408 470 26,100 1,620 Climbing FlightAware
08:50PM -14.8590 -48.4680 330° Northwest 396 456 27,500 1,500 Climbing FlightAware
08:50PM -14.7730 -48.5190 330° Northwest 398 458 28,600 900 Climbing FlightAware
08:51PM -14.7090 -48.5560 331° Northwest 413 475 28,800 780 Climbing FlightAware
08:53PM -14.5420 -48.6550 330° Northwest 30,000 840 Climbing FlightAware
08:53PM -14.4720 -48.6950 331° Northwest 30,600 900 Climbing FlightAware
08:55PM -14.2530 -48.8240 330° Northwest 426 490 32,700 1,020 Climbing FlightAware
08:56PM -14.1690 -48.8730 331° Northwest 425 489 33,600 900 Climbing FlightAware
08:57PM -14.1020 -48.9120 331° Northwest 419 482 34,100 300 Climbing FlightAware
08:58PM -14.0340 -48.9530 330° Northwest 419 482 34,100  Level FlightAware
08:58PM -13.9820 -48.9840 330° Northwest 419 482 34,100  Level FlightAware
08:59PM -13.9120 -49.0250 330° Northwest 419 482 34,100  Level FlightAware
09:00PM -13.8600 -49.0570 329° Northwest 419 482 34,100  Level FlightAware
09:01PM -13.7910 -49.0970 331° Northwest 419 482 34,100  Level FlightAware
09:01PM -13.7400 -49.1280 329° Northwest 419 482 34,100  Level FlightAware
09:02PM -13.6500 -49.1810 330° Northwest 419 482 34,100  Level FlightAware
09:03PM -13.5970 -49.2130 330° Northwest 419 482 34,100  Level FlightAware
09:04PM -13.5290 -49.2530 330° Northwest 419 482 34,100  Level FlightAware
09:04PM -13.4790 -49.2830 330° Northwest 419 482 34,100  Level FlightAware
09:05PM -13.4200 -49.3180 330° Northwest 419 482 34,100  Level FlightAware
09:06PM -13.3490 -49.3600 330° Northwest 419 482 34,100  Level FlightAware
09:06PM -13.2950 -49.3920 330° Northwest 419 482 34,100 1,500 Level FlightAware
09:07PM -13.1360 -49.5710 312° West 410 472 36,000 1,320 Climbing FlightAware
09:08PM -13.0740 -49.6340 315° West 408 470 36,000  Level FlightAware
09:08PM -13.0150 -49.6940 315° West 408 470 36,000  Level FlightAware
09:10PM -12.9720 -49.7370 316° Northwest 408 470 36,000  Level FlightAware
09:10PM -12.8610 -49.8490 315° West 411 473 36,000  Level FlightAware
09:11PM -12.8150 -49.8960 315° West 411 473 36,000  Level FlightAware
09:12PM -12.7530 -49.9580 316° Northwest 413 475 36,000  Level FlightAware
09:12PM -12.7010 -50.0110 315° West 413 475 36,000  Level FlightAware
09:13PM -12.6570 -50.0560 315° West 413 475 36,000  Level FlightAware
09:14PM -12.6010 -50.1130 315° West 413 475 36,000  Level FlightAware
09:14PM -12.5590 -50.1560 315° West 413 475 36,000  Level FlightAware
09:15PM -12.5040 -50.2120 315° West 413 475 36,000  Level FlightAware
09:16PM -12.4110 -50.3020 317° Northwest 410 472 36,000  Level FlightAware
09:17PM -12.3350 -50.3790 315° West 411 473 36,000  Level FlightAware
09:17PM -12.2940 -50.4210 315° West 411 473 36,000  Level FlightAware
09:18PM -12.2390 -50.4770 315° West 411 473 36,000  Level FlightAware
09:19PM -12.1980 -50.5190 315° West 411 473 36,000  Level FlightAware
09:20PM -12.1420 -50.5760 315° West 411 473 36,000  Level FlightAware
09:20PM -12.1010 -50.6180 315° West 411 473 36,000  Level FlightAware
09:21PM -12.0440 -50.6770 315° West 411 473 36,000  Level FlightAware
09:22PM -11.9080 -50.8060 317° Northwest 415 478 36,000  Level FlightAware
09:23PM -11.8360 -50.8770 316° Northwest 417 480 36,000  Level FlightAware
09:24PM -11.7660 -50.9480 315° West 417 480 36,000  Level FlightAware
09:25PM -11.7110 -51.0050 315° West 417 480 36,000  Level FlightAware
09:27PM -11.5656 -51.1621 313° West  Level Estimated
09:28PM -11.4903 -51.2433 313° West  Level Estimated
09:29PM -11.4150 -51.3245 313° West  Level Estimated
09:30PM -11.3398 -51.4056 313° West  Level Estimated
09:30PM -11.2590 -51.4500 313° West 415 478 36,000  Level FlightAware
09:31PM -11.1920 -51.5170 316° Northwest 415 478 36,000  Level FlightAware
09:32PM -11.1370 -51.5730 315° West 415 478 36,000  Level FlightAware
09:32PM -11.0940 -51.6170 315° West 415 478 36,000  Level FlightAware
09:33PM -11.0360 -51.6760 315° West 415 478 36,000  Level FlightAware
09:34PM -10.9950 -51.7180 315° West 415 478 36,000  Level FlightAware
09:35PM -10.9240 -51.7900 315° West 415 478 36,000  Level FlightAware
09:35PM -10.8840 -51.8310 315° West 415 478 36,000  Level FlightAware
09:36PM -10.8290 -51.8870 315° West 415 478 36,000  Level FlightAware
09:37PM -10.7870 -51.9290 316° Northwest 415 478 36,000  Level FlightAware
09:37PM -10.7320 -51.9860 314° West 415 478 36,000  Level FlightAware
09:38PM -10.6900 -52.0280 315° West 415 478 36,000  Level FlightAware
09:39PM -10.6350 -52.0840 315° West 415 478 36,000  Level FlightAware
09:39PM -10.5910 -52.1290 315° West 415 478 36,000  Level FlightAware
09:40PM -10.5420 -52.1780 315° West 415 478 36,000 -300 Level FlightAware
09:43PM -10.3723 -52.3610 313° West  Level Estimated
09:44PM -10.3016 -52.4372 313° West  Level Estimated
09:45PM -10.2308 -52.5134 313° West  Level Estimated
09:46PM -10.1600 -52.5896 313° West  Level Estimated
09:47PM -10.0892 -52.6657 313° West  Level Estimated
09:48PM -10.0184 -52.7417 313° West  Level Estimated
09:49PM -9.9476 -52.8178 313° West  Level Estimated
09:50PM -9.8768 -52.8938 313° West  Level Estimated
09:51PM -9.8059 -52.9697 313° West  Level Estimated
09:52PM -9.7350 -53.0457 313° West  Level Estimated
09:53PM -9.6641 -53.1216 313° West  Level Estimated
09:54PM -9.5932 -53.1975 313° West  Level Estimated
09:55PM -9.5223 -53.2733 313° West  Level Estimated
09:56PM -9.4514 -53.3491 313° West  Level Estimated
09:57PM -9.3804 -53.4249 313° West  Level Estimated
09:58PM -9.3094 -53.5007 314° West  Level Estimated
09:59PM -9.2384 -53.5764 314° West  Level Estimated
10:00PM -9.1674 -53.6521 314° West  Level Estimated
10:01PM -9.0964 -53.7277 314° West  Level Estimated
10:02PM -9.0253 -53.8034 314° West  Level Estimated
10:03PM -8.9543 -53.8790 314° West  Level Estimated
10:04PM -8.8832 -53.9545 314° West  Level Estimated
10:05PM -8.8121 -54.0301 314° West  Level Estimated
10:06PM -8.7410 -54.1056 314° West  Level Estimated
10:07PM -8.6699 -54.1811 314° West  Level Estimated
10:08PM -8.5988 -54.2565 314° West  Level Estimated
10:09PM -8.5276 -54.3319 314° West  Level Estimated
10:10PM -8.4565 -54.4073 314° West  Level Estimated
10:11PM -8.3853 -54.4827 314° West  Level Estimated
10:12PM -8.3141 -54.5580 314° West  Level Estimated
10:13PM -8.2429 -54.6334 314° West  Level Estimated
10:14PM -8.1717 -54.7086 314° West  Level Estimated
10:15PM -8.1005 -54.7839 314° West  Level Estimated
10:16PM -8.0292 -54.8591 314° West  Level Estimated
10:17PM -7.9580 -54.9343 314° West  Level Estimated
10:18PM -7.8867 -55.0095 314° West  Level Estimated
10:19PM -7.8154 -55.0847 314° West  Level Estimated
10:20PM -7.7441 -55.1598 314° West  Level Estimated
10:21PM -7.6728 -55.2349 314° West  Level Estimated
10:22PM -7.6015 -55.3100 314° West  Level Estimated
10:23PM -7.5302 -55.3851 314° West  Level Estimated
10:24PM -7.4588 -55.4601 314° West  Level Estimated
10:25PM -7.3875 -55.5351 314° West  Level Estimated
10:26PM -7.3161 -55.6101 314° West  Level Estimated
10:27PM -7.2447 -55.6850 314° West  Level Estimated
10:28PM -7.1733 -55.7600 314° West  Level Estimated
10:29PM -7.1019 -55.8349 314° West  Level Estimated
10:30PM -7.0305 -55.9098 314° West  Level Estimated
10:31PM -6.9590 -55.9846 314° West  Level Estimated
10:32PM -6.8876 -56.0595 314° West  Level Estimated
10:33PM -6.8161 -56.1343 314° West  Level Estimated
10:34PM -6.7446 -56.2091 314° West  Level Estimated
10:35PM -6.6732 -56.2839 314° West  Level Estimated
10:36PM -6.6017 -56.3586 314° West  Level Estimated
10:37PM -6.5302 -56.4333 314° West  Level Estimated
10:38PM -6.4587 -56.5080 314° West  Level Estimated
10:39PM -6.3871 -56.5827 314° West  Level Estimated
10:40PM -6.3156 -56.6574 314° West  Level Estimated
10:41PM -6.2440 -56.7321 314° West  Level Estimated
10:42PM -6.1725 -56.8067 314° West  Level Estimated
10:43PM -6.1009 -56.8813 314° West  Level Estimated
10:44PM -6.0293 -56.9559 314° West  Level Estimated
10:45PM -5.9577 -57.0304 314° West  Level Estimated
10:46PM -5.8861 -57.1050 314° West  Level Estimated
10:47PM -5.8145 -57.1795 314° West  Level Estimated
10:48PM -5.7429 -57.2540 314° West  Level Estimated
10:49PM -5.6713 -57.3285 314° West  Level Estimated
10:50PM -5.5996 -57.4030 314° West  Level Estimated
10:51PM -5.5280 -57.4775 314° West  Level Estimated
10:52PM -5.4563 -57.5519 314° West  Level Estimated
10:53PM -5.3847 -57.6263 314° West  Level Estimated
10:54PM -5.3130 -57.7007 314° West  Level Estimated
10:55PM -5.2413 -57.7751 314° West  Level Estimated
10:56PM -5.1696 -57.8494 314° West  Level Estimated
10:57PM -5.0979 -57.9238 314° West  Level Estimated
10:58PM -5.0262 -57.9981 314° West  Level Estimated
10:59PM -4.9545 -58.0724 314° West  Level Estimated
11:00PM -4.8828 -58.1468 314° West  Level Estimated
11:01PM -4.8110 -58.2210 314° West  Level Estimated
11:02PM -4.7393 -58.2953 314° West  Level Estimated
11:03PM -4.6675 -58.3695 314° West  Level Estimated
11:04PM -4.5958 -58.4438 314° West  Level Estimated
11:05PM -4.5240 -58.5180 314° West  Level Estimated
11:06PM -4.4522 -58.5922 314° West  Level Estimated
11:07PM -4.3804 -58.6664 314° West  Level Estimated
11:07PM -3.5440 -59.5320 314° West 368 423 14,700  Level FlightAware
11:07PM -3.5030 -59.5810 310° West 368 423 14,500 -1,500 Descending FlightAware
11:08PM -4.3087 -58.7406 314° West  Level Estimated
11:08PM -3.4640 -59.6460 301° West 351 404 12,600  Level FlightAware
11:09PM -3.4300 -59.7080 299° West 347 399 11,200 -1,500 Descending FlightAware
11:10PM -3.4000 -59.7650 298° West 328 377 10,500 -1,140 Descending FlightAware
11:10PM -3.3700 -59.8200 299° West 318 366 9,700 -900 Descending FlightAware
11:11PM -3.3490 -59.8590 298° West 319 367 9,200 -1,080 Descending FlightAware
11:12PM -3.3150 -59.9230 298° West 314 361 8,300 -1,620 Descending FlightAware
11:12PM -3.2950 -59.9590 299° West 310 357 7,600 -1,500 Descending FlightAware
11:12PM -3.2780 -59.9920 297° West 306 352 7,000 -1,500 Descending FlightAware
11:13PM -3.2610 -60.0230 299° West 303 349 6,300 -1,500 Descending FlightAware
11:13PM -3.2410 -60.0600 298° West 301 346 5,600 -1,020 Descending FlightAware
11:14PM -3.2230 -60.0950 297° West 287 330 5,300 -540 Descending FlightAware
11:14PM -3.2070 -60.1270 297° West 279 321 5,100 -480 Descending FlightAware
11:15PM -3.1860 -60.1510 311° West 270 311 4,900 -540 Descending FlightAware
11:15PM -3.1570 -60.1790 316° Northwest 261 300 4,600 -540 Descending FlightAware
11:16PM -3.1320 -60.2030 316° Northwest 257 296 4,400 -480 Descending FlightAware
11:16PM -3.1230 -60.2120 315° West 255 293 4,300 -720 Descending FlightAware
11:16PM -3.0940 -60.2310 327° Northwest 241 277 3,900 -1,020 Descending FlightAware
11:17PM -3.0700 -60.2240 16° North 227 261 3,400 -1,320 Descending FlightAware
11:17PM -3.0560 -60.2120 41° Northeast 222 255 3,000 -1,080 Descending FlightAware
11:18PM -3.0380 -60.1920 48° Northeast 212 244 2,600 -900 Descending FlightAware
11:18PM -3.0380 -60.1520 90° East 183 211 2,000 -900 Descending FlightAware
11:19PM -3.0380 -60.1430 90° East 173 199 1,800 -900 Descending FlightAware
11:19PM -3.0380 -60.1230 90° East 143 165 1,400 -780 Descending FlightAware
11:19PM -3.0380 -60.1050 90° East 134 154 1,100 -720 Descending FlightAware
11:20PM -3.0390 -60.0880 93° East 133 153 800 -600 Descending FlightAware
11:20PM -3.0390 -60.0810 90° East 133 153 700 -480 Descending FlightAware
11:23PM -3.0386 -60.0497 89° East  Level Estimated
11:23PM -3.0360 -60.0420 89° East 29 33  Level FlightAware
11:23PM -3.0330 -60.0440 326° Northwest 15 17  Level FlightAware
11:26PM -3.0386 -60.0497 226° Southwest  Level Estimated
11:27PM -3.0386 -60.0497 225° Southwest  Level Estimated